Regional Weather Roundup
Issued by NWS

Home | Current Version | Previous Version | Graphics & Text | Print | Product List | Glossary On
Versions: 1 2 3 4 5 6 7 8 9 10 11 12 13 14 15 16 17 18 19 20 21 22 23 24 25 26 27 28 29 30 31 32 33 34 35 36 37 38 39 40 41 42 43 44 45 46 47 48 49 50
000
ASUS43 KBIS 050220
RWRND

NORTH DAKOTA REGIONAL WEATHER ROUNDUP
NATIONAL WEATHER SERVICE BISMARCK ND
900 PM CDT MON MAY 04 2015

NOTE: "FAIR" INDICATES FEW OR NO CLOUDS BELOW 12,000 FEET WITH NO
SIGNIFICANT WEATHER AND/OR OBSTRUCTIONS TO VISIBILITY.


NDZ001>003-009>011-017-050300-
NORTHWEST NORTH DAKOTA

CITY           SKY/WX    TMP DP  RH WIND       PRES   REMARKS
WILLISTON      CLEAR     62  40  44 S13G23    30.02R
MINOT          CLEAR     63  27  25 S10       30.07R
MINOT AFB      CLEAR     63  29  27 S10       30.05S
$$

NDZ018>021-031>035-040>046-050300-
SOUTHWEST NORTH DAKOTA

CITY           SKY/WX    TMP DP  RH WIND       PRES   REMARKS
BISMARCK       PTCLDY    55  27  34 S3        30.12S
DICKINSON      CLEAR     51  33  50 S12       30.08R
GARRISON         N/A     56  30  37 S9        30.09R
HETTINGER ARPT CLOUDY    50  35  56 SE12      30.11F
$$

NDZ004>008-012>016-024-026-027-054-050300-
NORTHEAST NORTH DAKOTA

CITY           SKY/WX    TMP DP  RH WIND       PRES   REMARKS
GRAND FORKS    CLEAR     59  28  30 CALM      30.15S
GRND FRKS AFB  CLEAR     60  26  27 SE5       30.15S
DEVILS LAKE    CLEAR     57  34  41 SE9       30.14R
$$

NDZ022-023-025-028>030-036>039-047>053-050300-
SOUTHEAST NORTH DAKOTA

CITY           SKY/WX    TMP DP  RH WIND       PRES   REMARKS
FARGO          CLEAR     63  25  23 S6        30.16S
JAMESTOWN      CLEAR     59  24  26 SE5       30.14F
$$




USA.gov is the U.S. government's official web portal to all federal, state and local government web resources and services.